User: anonymous   Login
Location: Unspecified
(0.0000°N, 0.0000°E)
Time: 14:53:09
(UTC+02:00)
Language:

GPS 2-12 Rocket1 - Orbit

View from above orbital plane
View from above orbital plane
View from above satellite
View from above satellite

Ground track
Ground track

The orbit data is extracted from the following two-line orbital elements,

1 21891U 92009B   15245.43889255  .00000898  00000-0  59393-4 0  9990
2 21891  19.9983   4.5418 0047741 294.3855  65.1587 14.82253101269111
Epoch (UTC): 02 September 2015 10:32:00
Eccentricity: 0.0047741
inclination: 19.9983°
perigee height: 589 km
apogee height: 655 km
right ascension of ascending node: 4.5418°
argument of perigee: 294.3855°
revolutions per day: 14.82253101
mean anomaly at epoch: 65.1587°
orbit number at epoch: 26911

The dashed part of the orbit path shows where the satellite is in the earth's shadow,  

DLR